sat.trackr.live / text

‹ back to catalog

STARLINK-31665

NORAD 59655 · 2024-084B

PAYLOAD ACTIVE UNKNOWN

§ Identity

Operator
Country
US
Launch date
2024-05-06
Launch site
AFETR
Launch vehicle
Mass (kg)
RCS (m²)

Purposes: comms

External: N2YO · Heavens-Above · Gunter

§ Orbital elements

Epoch: 2026-09-21T14:03:51.758208Z

Period
94.27 min
Inclination
43.0009°
Eccentricity
0.0000695
Mean motion
15.27594495 rev/d
Perigee alt
482.5 km
Apogee alt
483.5 km
Semi-major
6,861.1 km
B*
-1.0605e-4
RAAN
11.9658°
Arg perigee
255.0447°
Mean anomaly
105.0328°
Rev number
13,437

§ Raw data

STARLINK-316651 59655U 24084B   26264.58601572 -.00003180  00000+0 -10605-3 0  99902 59655  43.0009  11.9658 0000695 255.0447 105.0328 15.27594495134373

JSON: /api/v1/satellites/59655 · /tle

For live sub-satellite position, see the globe view (requires WebGL).

§ Visibility from observer

Set your observer location to see the next 7 days of passes ≥ 10°. The values pass through the URL so the page stays shareable.

No JS? Fill the form by hand. The geolocation button needs JavaScript.